Theta_e
297 297 297 297 297 297 297 297 297 297 296 296 297 298 300 302 306 305 301 305 301 293 293 297 299 294 291 291 285 283 284 282 282 282 283 282 281 277 277 275 275 275 273 269 267 266 273 282 280 280 286 283 282 281
296 296 296 297 297 297 297 297 297 297 296 296 296 297 298 301 305 306 299 304 305 296 292 296 298 298 301 300 289 287 289 284 286 284 284 284 280 270 272 274 276 278 280 275 277 278 283 284 284 285 284 285 284 283
295 295 296 296 296 296 296 296 296 296 296 296 296 296 298 300 304 302 299 302 300 288 290 291 292 297 298 299 299 287 288 290 288 292 286 285 283 278 274 274 274 277 280 277 278 284 282 283 286 285 284 284 285 285
294 294 295 295 295 296 295 295 295 295 294 295 295 296 297 301 304 302 297 299 299 291 285 287 293 293 296 297 299 298 294 291 292 291 287 284 285 284 281 281 281 279 280 277 277 282 283 284 284 287 285 285 286 285
294 294 295 295 295 295 295 294 294 294 293 294 295 295 297 300 300 300 298 299 300 293 285 286 287 289 292 294 297 296 293 289 287 285 285 285 285 283 280 279 278 278 279 281 282 287 290 292 287 286 285 286 286 285
293 294 294 294 294 294 294 294 293 292 292 293 294 295 296 298 299 296 285 295 300 298 286 284 286 284 288 293 294 294 294 290 288 287 285 286 286 286 283 283 286 283 282 285 289 287 287 285 282 282 286 287 285 286
293 294 294 294 294 293 293 292 292 292 292 293 294 294 295 298 296 289 284 290 299 299 286 285 285 285 286 287 286 286 287 286 287 286 285 286 284 286 284 286 284 283 287 287 285 285 286 284 288 285 283 281 282 281
293 294 294 293 293 293 293 292 292 292 292 292 294 294 294 297 296 290 294 300 300 290 287 284 282 283 286 285 284 285 285 285 287 285 285 285 283 284 283 286 289 287 285 283 285 286 290 284 282 279 277 277 280 283
293 293 293 293 293 293 292 292 292 292 291 292 293 293 293 290 285 288 297 298 296 290 285 284 277 279 285 285 284 284 286 282 285 284 285 286 281 281 285 285 286 288 286 289 289 287 285 284 287 281 279 276 281 284
291 292 292 292 292 292 292 292 292 292 292 292 288 284 281 285 292 294 290 287 286 285 284 282 275 280 285 283 282 283 284 284 279 281 285 283 284 282 274 273 275 275 275 280 280 283 278 282 286 286 284 284 284 285
289 290 290 290 290 290 291 291 292 291 291 285 280 280 284 293 287 285 282 281 283 280 280 278 279 280 285 282 282 284 281 283 278 278 282 280 279 275 269 270 271 271 271 272 273 278 280 282 283 286 285 286 285 283
289 289 290 290 290 291 291 292 292 288 286 285 283 286 285 281 279 277 272 277 279 273 274 280 281 279 283 284 284 283 280 280 276 283 281 275 271 266 264 265 266 267 267 268 269 269 271 273 278 281 281 283 284 284
289 289 290 290 291 291 291 292 292 291 290 285 280 277 274 271 269 269 264 271 273 272 279 281 280 282 281 284 282 281 279 278 283 278 277 267 267 263 261 261 262 264 266 267 267 267 268 268 270 272 275 277 277 280
289 290 290 290 291 291 292 292 292 291 284 278 275 270 267 266 269 268 268 269 273 270 273 280 280 280 281 281 281 278 279 278 276 272 269 268 262 259 258 258 259 260 261 263 265 266 265 265 266 268 266 265 267 273
289 289 289 290 291 291 292 292 292 286 280 275 271 267 264 263 265 262 262 267 275 277 279 280 280 280 275 274 278 273 270 269 269 267 266 264 260 257 256 257 257 258 259 260 262 263 264 264 264 265 265 264 265 267
288 287 283 289 291 292 292 289 285 281 276 272 266 263 262 266 270 271 273 271 277 276 274 279 277 276 274 275 273 269 270 267 267 263 262 262 258 256 256 255 255 256 257 258 260 261 262 263 262 261 263 264 264 264
286 274 287 290 292 290 289 282 278 274 273 271 268 263 261 262 266 263 268 268 275 271 274 274 272 270 273 270 269 272 269 268 265 263 261 259 258 258 258 259 259 258 257 256 258 260 261 261 261 262 262 263 263 264
273 283 287 290 287 285 276 273 270 270 268 264 265 266 264 263 264 271 274 274 272 271 270 270 273 268 268 268 269 269 264 262 262 261 259 257 259 259 259 258 257 259 259 259 257 257 258 260 260 260 260 262 261 261
280 284 289 288 285 277 272 267 267 263 261 264 264 265 268 270 269 270 269 268 263 265 268 266 266 264 265 261 263 259 259 258 259 259 259 259 258 254 254 254 255 255 258 260 260 261 261 261 261 260 260 261 261 261
289 287 285 282 280 271 270 266 263 264 260 261 262 260 264 261 264 258 258 256 257 259 264 261 257 250 253 252 253 254 255 255 252 254 256 257 257 255 254 255 255 256 258 257 258 261 261 261 262 262 262 261 259 260
278 278 279 271 262 261 258 254 258 256 261 259 259 260 260 258 254 251 250 252 255 246 251 245 246 246 246 247 248 248 251 252 252 250 250 250 254 254 253 255 255 256 255 257 257 258 258 259 260 261 262 263 263 263
264 276 263 265 261 257 256 251 256 256 257 259 259 256 250 251 248 248 249 250 245 243 242 243 243 243 244 245 244 244 244 244 243 247 250 250 248 250 252 254 254 254 254 255 256 256 256 258 260 261 262 263 264 264
268 266 258 258 261 258 255 251 255 253 257 259 257 251 247 246 247 248 245 241 244 244 241 241 240 239 241 241 242 242 241 243 243 243 244 244 245 247 249 250 252 253 253 255 256 256 257 259 259 261 262 261 262 263
263 253 252 249 251 252 249 250 248 249 250 249 250 250 248 245 247 247 251 240 243 239 241 241 238 242 243 243 242 241 241 240 241 242 242 243 244 246 246 248 250 249 252 253 254 254 257 258 259 259 259 258 260 261
266 254 252 249 244 251 248 247 247 250 246 242 248 248 246 243 247 246 250 243 238 238 239 236 236 239 242 239 239 240 239 242 244 244 245 241 242 243 246 245 246 249 247 251 253 253 255 256 257 257 257 257 259 259
257 247 250 245 247 251 244 248 245 246 242 245 244 242 241 244 249 252 245 241 238 239 239 241 241 240 240 239 241 242 244 241 242 243 245 243 243 244 243 244 244 249 248 250 251 251 252 254 256 258 256 256 258 256
253 248 248 248 248 248 248 247 246 245 244 245 242 244 244 249 248 248 245 242 243 242 243 243 242 242 242 241 241 242 243 244 247 248 247 248 249 248 247 246 246 249 250 250 249 249 251 253 255 254 254 256 256 257
250 251 252 249 248 247 245 243 245 247 244 243 244 247 249 252 252 249 249 248 247 246 245 244 241 241 240 242 242 243 245 248 249 249 250 251 251 251 249 248 249 258 254 253 254 255 257 257 257 256 255 255 255 256
250 251 252 248 248 248 247 247 246 244 245 245 248 248 248 248 250 250 250 250 245 246 244 244 245 241 242 244 247 248 249 250 251 250 250 249 248 249 250 251 253 253 253 253 257 261 258 257 256 255 255 254 254 254
246 241 249 247 248 247 245 241 242 241 242 243 242 243 244 245 245 243 245 245 245 244 245 244 244 246 247 249 249 249 249 249 249 251 252 251 251 251 252 251 251 250 250 252 253 254 258 253 253 250 251 250 249 249
232 237 241 239 242 239 236 232 232 235 235 236 236 240 241 240 243 239 243 243 244 244 247 246 247 250 251 251 251 251 250 249 249 249 250 250 251 251 250 250 249 248 249 250 250 250 248 247 247 246 246 245 245 246
235 237 241 242 240 236 233 233 231 236 234 236 239 233 239 240 243 244 244 245 246 247 249 249 247 247 246 244 245 245 247 244 241 241 241 243 242 243 245 242 242 243 247 247 247 247 246 246 245 245 244 243 242 242
230 230 230 234 237 239 235 236 235 237 235 235 236 232 233 238 245 244 239 238 245 248 247 247 243 240 242 241 241 238 240 236 237 248 251 253 248 245 238 238 241 244 245 245 244 245 245 244 244 242 242 242 241 239
Wind_Speed
20 18 17 18 16 15 14 14 11 10 6 5 8 7 9 14 13 5 1 5 5 1 2 4 10 8 6 8 8 8 6 1 2 4 4 5 5 8 4 5 9 11 11 6 4 3 11 9 6 10 6 1 5 6
21 19 17 17 17 17 15 15 11 10 8 6 8 9 11 14 8 5 3 4 4 3 2 1 3 5 9 18 11 14 4 8 7 4 4 3 3 2 4 6 1 6 10 11 14 13 3 15 4 6 1 2 5 5
19 17 16 18 17 16 15 13 13 10 9 8 8 8 11 16 11 7 1 3 4 2 2 1 5 0 1 3 11 10 2 6 7 4 4 2 4 5 7 8 3 6 4 3 4 8 15 11 13 8 5 5 3 5
17 16 18 17 15 16 14 12 12 9 8 8 7 8 12 13 13 11 3 3 1 4 2 4 3 4 2 2 9 5 8 7 7 3 4 4 3 5 4 3 6 6 10 8 6 10 5 9 14 13 10 9 7 5
15 16 17 16 15 14 13 11 11 7 5 6 5 7 10 8 5 3 2 2 1 1 5 3 1 3 2 2 7 9 12 9 4 4 4 6 3 5 1 0 5 7 10 9 9 12 8 9 8 8 12 16 17 11
14 16 16 15 14 14 13 11 8 5 5 9 6 6 7 11 7 2 2 4 6 4 2 3 1 0 0 4 8 10 10 3 4 6 3 3 2 5 5 7 7 14 7 6 6 6 7 2 4 4 10 14 11 16
15 18 18 17 16 13 10 8 7 6 5 9 4 6 10 13 3 3 5 3 10 6 2 2 3 2 2 3 2 3 2 2 3 3 4 3 4 6 3 15 4 10 15 11 7 3 5 4 7 6 5 3 7 5
15 16 16 15 14 13 11 10 8 7 6 7 6 8 11 7 6 5 4 2 9 4 3 3 2 2 4 3 2 1 4 2 2 4 3 3 3 1 9 0 6 9 10 4 10 12 12 1 2 3 3 4 5 9
12 13 13 13 12 12 11 9 9 7 7 6 3 9 4 2 2 1 7 7 1 2 5 4 7 5 4 2 3 2 2 3 2 4 5 6 4 9 6 5 7 11 13 14 16 12 8 9 9 4 3 2 5 7
10 10 12 13 12 11 10 10 10 7 7 1 2 2 3 3 3 4 2 5 2 2 2 3 2 5 4 2 3 5 2 4 4 5 5 5 6 5 7 6 8 10 11 11 4 8 3 6 13 13 15 11 10 9
4 6 8 10 11 11 11 11 9 6 7 1 1 3 2 5 1 3 4 5 4 4 4 3 4 5 2 5 3 2 4 4 4 6 8 5 6 3 11 11 11 12 11 8 7 8 6 5 6 6 7 10 9 7
3 5 6 8 10 11 13 13 13 5 3 3 3 2 2 1 1 4 3 1 4 8 2 6 3 3 3 2 3 4 5 4 7 8 5 5 2 4 8 10 12 11 11 10 7 9 9 8 9 8 5 5 8 10
4 6 8 10 12 14 14 14 14 10 9 2 1 3 4 2 2 5 5 2 1 0 3 3 4 3 3 3 2 4 7 7 7 5 4 0 2 4 7 7 9 9 10 9 8 8 8 8 8 6 7 6 7 5
5 7 11 13 14 15 15 14 13 13 3 3 4 3 5 2 2 4 3 3 3 2 2 2 3 3 2 4 3 5 3 4 7 7 6 2 3 5 5 4 5 10 11 11 11 11 9 9 9 6 5 5 5 4
5 3 4 7 11 15 14 13 15 3 3 3 2 3 2 3 2 2 3 1 2 2 2 3 2 2 1 1 0 3 2 2 2 2 3 2 1 2 5 5 5 6 8 8 9 10 11 10 8 6 6 5 5 5
7 3 2 7 9 7 19 15 4 3 2 3 3 5 2 4 1 1 2 1 2 2 2 2 2 2 2 1 4 3 3 3 1 3 2 2 1 2 3 4 5 5 5 5 6 7 9 10 8 7 6 5 5 4
1 2 9 11 13 20 10 3 2 4 3 3 2 2 3 2 3 1 2 2 3 3 2 2 3 1 2 4 3 3 2 2 2 3 2 2 1 3 5 6 6 7 7 6 5 7 7 8 7 8 11 10 7 6
1 1 7 15 7 4 3 4 5 4 5 2 3 1 2 1 2 2 1 4 3 3 2 3 3 4 3 4 3 3 3 3 3 3 2 2 6 6 5 5 5 5 6 6 5 5 5 9 9 7 8 9 7 6
4 5 7 7 6 4 4 5 4 5 1 2 1 1 1 3 3 3 3 5 2 0 3 3 5 3 3 2 3 3 2 2 1 1 0 3 4 5 3 4 2 3 6 8 7 6 5 5 4 6 7 6 5 4
17 16 11 13 7 4 5 4 3 5 3 2 3 3 2 2 1 2 4 6 4 3 6 4 2 3 2 2 2 2 2 1 1 2 1 2 3 3 3 4 5 6 5 5 5 7 6 6 5 6 6 6 4 4
10 8 11 7 5 7 6 3 5 2 1 4 1 2 2 4 4 5 5 5 6 3 2 2 2 2 1 1 1 1 2 1 1 3 3 2 3 5 5 5 5 4 3 4 5 5 6 5 6 7 6 6 5 3
2 10 4 7 6 6 6 2 3 1 4 2 3 4 4 3 3 3 4 5 2 3 3 3 2 1 1 1 1 1 1 0 1 1 4 3 3 3 3 4 4 5 4 3 4 5 5 5 5 6 6 6 4 3
7 6 6 7 7 7 3 2 5 6 5 1 2 4 4 3 2 2 4 2 3 2 2 2 2 2 3 2 1 1 2 3 2 1 2 2 2 2 2 2 2 2 3 3 4 3 4 7 5 5 5 5 4 4
11 9 7 5 4 1 3 6 3 4 5 5 4 1 2 2 4 4 2 3 3 2 1 1 1 2 2 3 2 1 2 2 2 1 1 2 2 2 1 2 1 2 3 4 3 4 4 4 6 5 6 6 5 5
6 7 5 5 3 5 6 5 5 5 2 1 2 2 3 3 2 1 4 4 2 2 2 1 1 1 3 1 3 3 3 2 2 1 3 2 1 2 3 2 2 3 3 2 4 5 6 5 5 5 5 6 6 7
5 5 3 2 3 4 3 3 2 4 3 1 3 2 3 3 2 6 4 4 3 4 4 4 4 1 1 3 2 0 2 3 3 1 4 2 2 3 2 2 2 4 3 3 3 2 6 5 5 5 5 7 9 6
5 1 2 0 3 3 3 2 2 3 3 4 3 1 3 2 6 4 2 2 3 4 4 4 4 4 4 3 3 3 3 3 5 3 2 1 2 2 3 2 3 5 5 4 3 1 3 5 2 2 2 6 6 7
3 1 3 1 3 1 4 2 3 4 3 2 3 3 6 6 3 2 3 2 3 3 3 2 3 4 4 4 3 1 2 2 3 2 3 2 2 2 2 3 4 8 4 3 5 5 3 2 5 7 7 7 7 7
3 2 1 3 2 2 1 2 3 2 2 3 3 2 3 3 2 3 3 3 3 3 3 2 1 1 1 1 1 1 0 2 6 5 5 2 1 3 2 3 3 3 3 4 7 4 7 7 7 7 7 6 6 7
2 3 3 2 3 2 2 2 2 2 2 1 1 3 3 4 3 0 3 3 3 3 3 3 3 3 3 4 3 2 1 1 1 1 3 3 2 2 2 2 3 3 3 2 3 6 11 8 7 5 8 7 7 7
1 2 4 3 2 3 2 2 2 0 2 2 2 3 4 4 5 2 3 4 4 4 4 3 2 3 4 4 3 4 3 1 2 3 2 1 0 1 2 2 1 1 2 4 6 7 8 7 7 8 9 9 8 8
4 3 4 3 1 4 3 3 1 2 4 3 2 1 4 3 4 4 4 5 4 4 5 4 4 4 4 2 3 2 3 3 3 2 2 1 2 2 1 1 2 2 5 7 7 7 8 8 6 7 7 8 8 7
3 2 2 3 3 2 3 3 5 4 3 2 3 1 2 3 7 4 2 0 5 7 7 6 4 4 6 6 5 3 3 3 3 3 3 4 4 4 2 2 4 5 8 7 6 7 8 10 9 8 8 8 7 6
Wind_Direction
223 222 219 227 232 225 235 239 225 224 249 302 302 284 302 306 244 210 181 153 242 341 252 202 188 148 134 162 148 144 110 223 132 202 169 173 183 213 144 159 181 166 157 187 96 105 268 136 86 180 218 67 151 172
222 219 222 220 226 223 218 231 229 226 239 268 319 293 281 279 190 160 196 136 129 238 264 333 269 297 202 172 136 180 164 152 158 160 190 144 173 99 147 214 81 222 189 178 184 207 208 197 217 235 342 204 196 182
218 218 222 220 219 229 228 234 230 228 240 260 279 297 289 296 232 152 155 125 125 146 302 7 273 347 292 208 157 135 204 153 174 174 137 181 209 140 175 225 162 247 172 191 106 236 230 223 244 248 222 231 214 217
211 211 218 216 213 214 211 215 229 226 238 266 276 303 305 296 221 157 166 151 78 117 188 264 312 264 327 225 184 113 128 112 114 145 138 167 200 193 210 195 201 179 141 169 266 281 272 234 230 237 218 218 238 236
206 206 214 203 198 205 196 182 201 208 251 278 248 298 314 291 35 122 126 178 133 130 183 217 118 226 278 171 158 141 142 124 144 151 167 192 158 150 176 81 222 189 174 183 211 219 193 242 202 187 202 214 209 196
201 207 196 175 177 194 186 184 195 222 246 272 233 288 289 296 157 111 24 235 182 154 158 181 325 56 101 166 155 159 165 126 140 149 180 201 201 162 190 237 193 190 202 207 226 230 218 260 277 186 202 222 195 195
198 187 176 176 179 184 182 194 211 224 249 274 253 313 277 285 228 172 189 235 173 132 205 131 230 183 210 108 91 93 81 147 135 154 191 150 203 184 229 245 157 204 214 223 234 103 312 200 237 210 195 199 169 185
180 177 177 181 185 188 197 204 217 230 249 274 244 298 290 249 228 253 234 345 152 113 165 212 145 228 192 141 127 157 125 119 158 159 142 170 119 208 247 88 198 195 217 242 240 214 242 228 138 149 153 151 157 197
165 172 187 189 197 204 206 215 227 225 256 266 278 312 292 186 182 228 303 132 52 145 185 201 154 200 172 139 108 90 132 151 123 198 183 159 156 218 224 185 184 199 197 215 230 226 232 239 257 206 185 249 199 220
154 180 194 197 204 209 214 223 228 223 263 39 62 264 203 190 225 209 73 165 223 161 233 228 103 168 157 146 147 126 177 173 177 220 131 202 239 125 23 348 18 10 16 1 28 269 250 244 238 224 204 208 211 218
185 210 220 222 225 223 225 227 219 212 102 165 132 237 228 154 134 155 200 187 160 199 190 193 174 139 206 155 141 195 166 168 193 206 178 199 253 52 359 353 1 356 357 352 327 323 346 314 298 255 225 215 229 241
191 212 219 222 223 225 224 226 219 166 172 192 155 248 118 110 181 190 198 252 191 204 212 151 167 151 151 173 144 175 181 161 229 145 188 218 92 11 358 352 349 349 347 346 344 340 341 337 335 309 268 213 215 226
254 239 231 230 226 222 217 213 215 163 125 86 207 218 125 288 117 156 191 247 235 346 181 166 147 149 146 185 155 171 177 191 125 164 196 69 14 352 351 348 341 341 347 351 345 342 339 335 337 347 332 12 349 307
322 277 248 240 230 227 223 216 209 156 126 208 194 175 147 152 190 187 182 175 240 196 277 172 134 166 137 170 159 184 173 136 186 170 185 93 340 318 321 325 342 343 345 344 347 341 339 338 330 337 357 339 329 324
334 291 293 287 261 234 228 208 156 106 155 180 153 162 194 214 98 200 197 354 229 233 235 136 97 107 122 122 337 87 87 131 41 132 103 105 216 315 327 337 339 348 343 341 343 342 335 331 330 329 347 349 9 353
296 320 237 309 271 231 139 126 119 128 82 118 74 84 291 59 10 286 92 253 345 285 6 32 76 174 86 42 65 353 52 84 124 87 62 94 352 328 314 310 320 313 307 325 345 345 338 338 336 315 306 350 7 6
85 236 307 276 143 127 140 98 90 56 97 77 45 54 92 86 122 213 332 321 290 68 88 58 64 58 304 64 59 34 64 78 130 106 68 49 45 9 358 340 341 331 328 338 336 358 350 336 329 356 5 349 350 351
151 99 44 84 85 72 53 33 76 71 73 93 99 61 73 87 115 60 16 6 12 81 107 154 117 67 96 122 146 121 122 122 78 86 79 6 5 12 19 348 330 319 329 352 346 326 346 6 4 350 335 336 331 345
176 148 110 69 78 86 68 22 50 95 56 356 57 79 79 75 64 40 9 354 330 20 97 41 76 140 177 35 76 93 76 49 57 359 61 65 337 15 315 282 260 357 1 3 359 360 346 0 347 323 321 326 338 337
91 67 52 54 62 73 64 9 52 88 108 212 64 41 82 116 91 52 20 13 7 43 40 51 135 173 104 83 16 71 86 36 67 32 347 1 6 334 329 357 12 353 356 357 2 3 357 3 355 343 328 322 325 337
45 354 19 51 48 59 79 355 47 90 126 86 275 82 79 20 27 17 353 338 54 50 112 206 188 234 321 252 2 53 74 68 177 176 195 299 335 347 353 359 356 353 1 357 359 346 7 359 330 322 317 318 314 335
290 9 53 13 68 33 74 339 111 284 70 186 55 39 37 31 357 340 298 50 77 234 193 172 216 184 27 76 306 101 174 358 298 335 325 338 343 358 354 356 356 360 352 335 335 335 320 316 328 323 322 313 329 21
24 31 41 22 70 40 296 29 62 359 88 45 71 53 6 354 256 327 57 235 247 234 208 201 217 201 202 279 80 59 104 98 61 21 314 278 265 272 282 300 336 352 331 313 324 310 302 314 319 329 331 317 331 41
31 49 48 50 33 185 359 18 23 40 36 29 65 75 301 252 319 49 218 249 251 327 354 250 61 22 1 22 38 289 307 90 79 342 271 59 51 295 260 262 285 290 277 293 306 307 314 344 345 347 3 355 344 18
78 358 49 3 337 60 42 19 355 53 94 299 86 331 304 5 61 31 226 263 265 254 247 13 37 19 148 282 324 306 306 106 97 86 298 154 208 352 7 4 324 265 292 340 346 342 338 349 350 5 17 3 353 34
91 326 51 170 314 98 187 110 169 174 139 119 225 273 20 84 93 241 234 211 215 197 192 185 177 152 296 198 140 347 264 174 115 93 277 162 139 139 151 73 359 298 306 294 286 331 335 330 325 27 28 27 21 23
116 119 2 165 120 119 76 52 92 100 136 173 218 104 77 152 242 252 257 222 163 215 187 166 155 159 180 199 230 251 236 194 196 198 224 267 215 180 132 152 255 247 265 284 300 277 280 304 322 60 86 55 33 45
102 142 145 171 73 0 130 105 143 180 193 218 89 181 182 202 238 214 198 185 153 141 137 168 181 171 179 210 216 255 301 187 206 241 280 267 213 192 238 260 257 303 307 298 275 261 251 92 72 67 67 66 52 49
83 42 142 79 89 46 144 163 180 211 201 137 173 235 253 240 219 176 182 158 130 125 120 142 261 158 298 256 177 186 227 184 163 164 195 219 245 264 297 283 297 325 338 303 323 61 87 77 71 72 79 81 75 66
164 350 96 86 118 219 240 155 177 279 303 237 196 317 306 278 250 113 111 114 136 182 194 175 165 142 166 169 174 127 21 21 352 174 169 186 194 280 289 322 340 329 314 346 61 54 67 62 68 52 62 58 55 63
304 42 75 71 147 257 247 307 284 318 26 357 321 170 246 291 304 242 174 169 146 141 142 153 165 181 173 186 178 164 154 152 108 93 92 129 267 321 337 339 345 356 36 77 81 85 87 69 64 72 72 71 61 69
16 87 122 108 251 295 17 43 26 43 335 11 273 325 318 1 280 265 196 133 137 170 203 171 161 194 182 118 92 74 72 123 171 197 204 259 300 315 356 353 31 53 75 79 75 82 88 96 96 98 99 89 83 81
58 47 55 77 43 358 313 69 19 337 360 326 280 232 237 202 245 260 301 315 177 179 183 187 176 155 152 155 164 175 171 182 216 230 264 234 141 125 110 86 84 79 86 87 86 107 108 108 103 100 97 99 96 87